1510020000.98,53404,10.25,73852.5,-4.77,-40.21,-39.97,0,*51
1510020002.21,53405,10.25,73850.3,-4.73,-40.03,-39.91,0,*52
1510020003.44,53406,10.25,73848.5,-4.73,-39.85,-39.65,0,*5A
1510020004.68,53407,10.25,73846.0,-4.73,-39.91,-39.65,0,*5E
1510020005.97,53408,10.25,73850.8,-4.77,-39.79,-39.71,0,*56
1510020007.23,53409,10.25,73852.0,-4.77,-40.09,-39.91,0,*50
1510020008.5,53410,10.25,73854.0,-4.77,-40.09,-39.91,0,*58
1510020009.78,53411,10.25,73850.0,-4.73,-39.71,-39.71,0,*52
1510020011.03,53412,10.25,73850.8,-4.73,-40.29,-39.91,0,*5C
1510020012.32,53413,10.25,73854.3,-4.77,-39.71,-39.71,0,*54
1510020013.61,53414,10.25,73848.5,-4.77,-40.09,-39.97,0,*5A
1510020014.85,53415,10.25,73848.8,-4.73,-39.53,-39.47,0,*53
1510020016.13,53416,10.25,73848.0,-4.73,-39.71,-39.53,0,*55
1510020017.37,53417,10.25,73852.5,-4.73,-39.85,-39.65,0,*5A
1510020018.63,53418,10.25,73850.5,-4.73,-39.85,-39.71,0,*50
1510020019.85,53419,10.25,73852.0,-4.73,-39.65,-39.47,0,*5A
1510020021.12,53420,10.25,73850.5,-4.77,-39.91,-39.71,0,*5A
1510020022.38,53421,10.25,73848.8,-4.73,-39.85,-39.71,0,*5A
1510020023.62,53422,10.25,73850.5,-4.73,-40.15,-39.91,0,*50
1510020024.84,53423,10.25,73850.5,-4.73,-40.03,-39.85,0,*53
1510020026.1,53424,10.25,73848.5,-4.73,-39.71,-39.65,0,*51
1510020027.37,53425,10.25,73848.8,-4.73,-39.91,-39.71,0,*5B
1510020028.62,53426,10.25,73848.3,-4.73,-39.85,-39.71,0,*5D
1510020029.85,53427,10.25,73848.0,-4.73,-39.65,-39.47,0,*57
1510020031.14,53428,10.25,73854.0,-4.77,-39.79,-39.79,0,*5C
1510020032.38,53429,10.25,73852.0,-4.73,-40.15,-40.03,0,*5E
1510020033.6,53430,10.25,73848.8,-4.73,-40.03,-39.85,0,*51
1510020034.84,53431,10.25,73852.3,-4.77,-39.91,-39.91,0,*54
1510020036.08,53432,10.25,73850.8,-4.73,-39.91,-39.65,0,*58
1510020037.36,53433,10.25,73848.5,-4.77,-39.97,-39.71,0,*5E
1510020038.6,53434,10.25,73848.8,-4.73,-39.91,-39.65,0,*5E
1510020039.86,53435,10.25,73852.8,-4.73,-39.91,-39.71,0,*5A
1510020041.15,53436,10.25,73850.0,-4.73,-39.71,-39.71,0,*57
1510020042.42,53437,10.25,73852.3,-4.73,-39.71,-39.53,0,*56
1510020043.68,53438,10.25,73850.3,-4.73,-39.85,-39.71,0,*52
1510020044.97,53439,10.25,73850.0,-4.77,-39.59,-39.23,0,*51
1510020046.22,53440,10.25,73850.5,-4.73,-39.53,-39.35,0,*56
1510020047.5,53441,10.25,73850.8,-4.77,-39.71,-39.53,0,*53
1510020048.7,53442,10.25,73848.0,-4.71,-39.35,-39.09,0,*59
1510020049.93,53443,10.25,73848.3,-4.71,-39.71,-39.65,0,*52
1510020051.22,53444,10.25,73850.0,-4.69,-39.79,-39.59,0,*5B
1510020052.45,53445,10.25,73850.8,-4.71,-39.71,-39.65,0,*54
1510020053.67,53446,10.25,73848.3,-4.71,-39.53,-39.35,0,*52
1510020054.86,53447,10.25,73850.5,-4.71,-39.65,-39.47,0,*53
1510020056.07,53448,10.25,73850.3,-4.71,-39.91,-39.91,0,*5C
1510020057.32,53449,10.25,73850.3,-4.71,-39.97,-39.79,0,*5D
1510020058.52,53450,10.25,73850.5,-4.71,-39.85,-39.65,0,*5B
1510020059.72,53451,10.25,73854.3,-4.71,-40.03,-39.91,0,*51
1510020060.92,53452,10.25,73848.3,-4.71,-40.03,-39.85,0,*57
1510020062.15,53453,10.25,73852.0,-4.71,-39.85,-39.71,0,*5D
1510020063.37,53454,10.25,73850.0,-4.69,-40.03,-39.85,0,*58
1510020064.57,53455,10.25,73850.5,-4.71,-39.91,-39.85,0,*55
1510020065.77,53456,10.25,73848.8,-4.71,-40.03,-39.91,0,*56
1510020067.0,53457,10.25,73850.8,-4.73,-40.03,-39.91,0,*55
1510020068.23,53458,10.25,73852.8,-4.73,-40.03,-39.91,0,*5A
1510020069.51,53459,10.25,73850.8,-4.73,-39.71,-39.53,0,*5E
1510020070.76,53460,10.25,73850.8,-4.73,-39.65,-39.53,0,*51
1510020071.99,53461,10.25,73850.8,-4.73,-40.03,-39.91,0,*50
1510020073.26,53462,10.25,73852.3,-4.73,-40.15,-40.09,0,*5B
1510020074.49,53463,10.25,73850.0,-4.73,-39.85,-39.65,0,*59
1510020075.75,53464,10.25,73848.8,-4.73,-39.85,-39.71,0,*5B
1510020077.01,53465,10.25,73848.8,-4.73,-39.91,-39.71,0,*5F
1510020078.25,53466,10.25,73848.5,-4.73,-39.85,-39.65,0,*5C
1510020079.5,53467,10.25,73848.8,-4.73,-39.85,-39.53,0,*58
1510020080.76,53468,10.25,73844.8,-4.73,-39.85,-39.71,0,*57
1510020081.98,53469,10.25,73848.0,-4.69,-39.85,-39.47,0,*58
1510020083.21,53470,10.25,73850.0,-4.73,-40.03,-39.91,0,*50
1510020084.45,53471,10.25,73854.0,-4.73,-39.91,-39.91,0,*54
1510020085.67,53472,10.25,73848.5,-4.71,-39.65,-39.53,0,*50
1510020086.88,53473,10.25,73852.5,-4.71,-39.85,-39.65,0,*5A
1510020088.11,53474,10.25,73854.5,-4.71,-39.85,-39.71,0,*58
1510020089.31,53475,10.25,73846.5,-4.71,-40.03,-39.91,0,*57
1510020090.51,53476,10.25,73846.5,-4.71,-39.85,-39.65,0,*5F
1510020091.74,53477,10.25,73850.3,-4.71,-39.65,-39.53,0,*55
1510020092.94,53478,10.25,73848.5,-4.71,-39.91,-39.85,0,*5A
1510020094.17,53479,10.25,73854.0,-4.71,-39.71,-39.65,0,*5B
1510020095.42,53480,10.25,73852.3,-4.71,-39.71,-39.53,0,*58
1510020096.64,53481,10.25,73850.5,-4.71,-39.85,-39.53,0,*52
1510020097.9,53482,10.25,73848.8,-4.69,-39.85,-39.79,0,*50
1510020099.12,53483,10.25,73848.3,-4.71,-39.71,-39.47,0,*5E
1510020100.32,53484,10.25,73848.3,-4.71,-39.91,-39.85,0,*59
1510020101.55,53485,10.25,73850.8,-4.71,-39.85,-39.71,0,*56
1510020102.76,53486,10.25,73850.3,-4.71,-39.91,-39.91,0,*5E
1510020103.96,53487,10.25,73848.8,-4.71,-40.03,-39.91,0,*5A
1510020105.21,53488,10.25,73854.5,-4.71,-39.71,-39.53,0,*50
1510020106.41,53489,10.25,73850.3,-4.71,-39.85,-39.65,0,*5F
1510020107.62,53490,10.25,73850.0,-4.71,-39.91,-39.91,0,*59
1510020108.85,53491,10.25,73850.8,-4.71,-40.09,-39.91,0,*57
1510020110.04,53492,10.25,73846.5,-4.71,-40.03,-39.85,0,*5B
1510020111.31,53493,10.25,73846.8,-4.69,-39.79,-39.65,0,*5E
1510020112.5,53494,10.25,73852.5,-4.71,-40.03,-39.85,0,*5D
1510020113.71,53495,10.25,73848.3,-4.71,-39.85,-39.65,0,*52
1510020114.91,53496,10.25,73850.0,-4.71,-40.15,-40.03,0,*58
1510020116.14,53497,10.25,73850.3,-4.71,-40.09,-39.91,0,*51
1510020117.38,53498,10.25,73848.3,-4.71,-39.71,-39.65,0,*54
1510020118.62,53499,10.25,73850.3,-4.71,-39.53,-39.29,0,*5D
1510020119.81,53500,10.25,73850.8,-4.71,-39.47,-39.47,0,*51
1510020121.05,53501,10.25,73852.0,-4.71,-39.71,-39.65,0,*55
1510020122.27,53502,10.25,73848.0,-4.69,-39.65,-39.47,0,*5A
1510020123.53,53503,10.25,73848.5,-4.71,-39.71,-39.71,0,*52
1510020124.76,53504,10.25,73852.0,-4.69,-39.85,-39.65,0,*52
1510020125.99,53505,10.25,73848.3,-4.69,-39.85,-39.65,0,*53
1510020127.24,53506,10.25,73850.3,-4.69,-39.47,-39.41,0,*58
1510020128.49,53507,10.25,73854.0,-4.71,-39.71,-39.53,0,*56
1510020129.72,53508,10.25,73852.0,-4.69,-39.65,-39.65,0,*50
1510020130.98,53509,10.25,73850.8,-4.69,-39.85,-39.79,0,*52
1510020132.24,53510,10.25,73850.3,-4.71,-40.09,-40.09,0,*50
1510020133.47,53511,10.25,73850.8,-4.73,-39.91,-39.91,0,*53
1510020134.7,53512,10.25,73848.5,-4.71,-40.03,-39.71,0,*59
1510020135.89,53513,10.25,73850.5,-4.71,-40.03,-39.85,0,*53
1510020137.12,53514,10.25,73848.3,-4.71,-40.09,-39.91,0,*5B
1510020138.36,53515,10.25,73846.5,-4.71,-40.15,-40.09,0,*58
1510020139.56,53516,10.25,73852.5,-4.71,-39.91,-39.85,0,*53
1510020140.76,53517,10.25,73848.0,-4.71,-39.91,-39.85,0,*52
1510020142.04,53518,10.25,73848.0,-4.69,-39.97,-39.79,0,*51
1510020143.29,53519,10.25,73852.8,-4.69,-39.65,-39.59,0,*5F
1510020144.51,53520,10.25,73848.3,-4.71,-39.53,-39.47,0,*56
1510020145.78,53521,10.25,73848.0,-4.69,-39.41,-39.29,0,*55
1510020146.99,53522,10.25,73854.5,-4.71,-39.85,-39.65,0,*5F
1510020148.25,53523,10.25,73854.0,-4.69,-39.79,-39.65,0,*54
1510020149.53,53524,10.25,73850.3,-4.69,-39.59,-39.41,0,*57
1510020150.78,53525,10.25,73848.5,-4.71,-39.71,-39.53,0,*56
1510020152.03,53526,10.25,73850.5,-4.69,-39.59,-39.47,0,*53
1510020153.31,53527,10.25,73850.5,-4.69,-39.97,-39.71,0,*55
1510020154.6,53528,10.25,73852.5,-4.69,-39.79,-39.59,0,*50
1510020155.83,53529,10.25,73846.0,-4.69,-39.65,-39.65,0,*53
1510020157.06,53530,10.25,73850.5,-4.69,-39.85,-39.65,0,*55
1510020158.29,53531,10.25,73846.5,-4.69,-39.47,-39.47,0,*5A
1510020159.48,53532,10.25,73848.8,-4.71,-39.65,-39.47,0,*50
1510020160.7,53533,10.25,73852.0,-4.69,-39.65,-39.47,0,*58
1510020161.96,53534,10.25,73846.5,-4.69,-39.79,-39.47,0,*52
1510020163.25,53535,10.25,73850.5,-4.69,-39.79,-39.79,0,*5E
1510020164.45,53536,10.25,73854.5,-4.71,-39.91,-39.85,0,*51
1510020165.69,53537,10.25,73848.3,-4.69,-39.97,-39.85,0,*5F
1510020166.96,53538,10.25,73850.0,-4.69,-39.79,-39.65,0,*5E
1510020168.18,53539,10.25,73848.0,-4.69,-39.65,-39.47,0,*52
1510020169.45,53540,10.25,73846.8,-4.67,-39.79,-39.65,0,*5F
1510020170.71,53541,10.25,73850.5,-4.69,-39.79,-39.65,0,*50
1510020171.97,53542,10.25,73852.5,-4.69,-39.79,-39.65,0,*53
1510020173.23,53543,10.25,73854.0,-4.69,-39.85,-39.79,0,*5C
1510020174.46,53544,10.25,73850.8,-4.69,-39.85,-39.65,0,*56
1510020175.72,53545,10.25,73852.0,-4.69,-39.85,-39.79,0,*5A
1510020176.95,53546,10.25,73850.3,-4.71,-40.09,-40.03,0,*59
1510020178.2,53547,10.25,73848.8,-4.69,-40.03,-39.97,0,*58
1510020179.47,53548,10.25,73852.0,-4.69,-40.09,-39.97,0,*5D
1510020180.75,53549,10.25,73854.8,-4.69,-39.97,-39.79,0,*55
1510020182.0,53550,10.25,73854.5,-4.69,-39.97,-39.85,0,*5E
1510020183.23,53551,10.25,73848.3,-4.69,-39.85,-39.65,0,*52
1510020184.45,53552,10.25,73850.3,-4.69,-39.65,-39.47,0,*5F
1510020185.74,53553,10.25,73854.0,-4.69,-39.79,-39.59,0,*5C
1510020186.98,53554,10.25,73852.0,-4.71,-39.53,-39.53,0,*50
1510020188.18,53555,10.25,73852.0,-4.71,-39.91,-39.85,0,*54
1510020189.41,53556,10.25,73850.8,-4.69,-39.65,-39.47,0,*5B
1510020190.67,53557,10.25,73850.5,-4.69,-39.79,-39.65,0,*57
1510020191.93,53558,10.25,73848.5,-4.69,-39.79,-39.65,0,*58
1510020193.16,53559,10.25,73850.8,-4.69,-39.65,-39.65,0,*54
1510020194.45,53560,10.25,73848.5,-4.69,-39.59,-39.41,0,*57
1510020195.72,53561,10.25,73848.3,-4.69,-39.41,-39.23,0,*5B
1510020197.0,53562,10.25,73850.5,-4.69,-39.59,-39.41,0,*55
1510020198.23,53563,10.25,73850.3,-4.67,-39.85,-39.85,0,*53
1510020199.46,53564,10.25,73848.8,-4.67,-40.03,-40.03,0,*54
1510020200.69,53565,10.25,73850.8,-4.67,-40.03,-39.85,0,*55
1510020201.94,53566,10.25,73852.5,-4.67,-39.97,-39.85,0,*55
1510020203.2,53567,10.25,73846.3,-4.67,-39.65,-39.59,0,*58
1510020204.45,53568,10.25,73848.0,-4.69,-40.03,-39.97,0,*55
1510020205.67,53569,10.25,73848.3,-4.69,-40.03,-40.03,0,*57
1510020206.91,53570,10.25,73844.3,-4.69,-40.21,-40.03,0,*5F
1510020208.16,53571,10.25,73850.8,-4.69,-40.03,-39.97,0,*5D
1510020209.4,53572,10.25,73848.8,-4.69,-40.21,-40.03,0,*5D
1510020210.62,53573,10.25,73848.0,-4.69,-40.03,-40.03,0,*5C
1510020211.88,53574,10.25,73846.0,-4.69,-39.85,-39.79,0,*58
1510020213.15,53575,10.25,73848.3,-4.69,-39.97,-39.79,0,*5A
1510020214.4,53576,10.25,73846.8,-4.69,-40.03,-39.97,0,*5A
1510020215.67,53577,10.25,73848.8,-4.69,-39.79,-39.65,0,*55
1510020216.92,53578,10.25,73848.3,-4.69,-39.47,-39.29,0,*5F
1510020218.15,53579,10.25,73848.8,-4.69,-39.85,-39.85,0,*56
1510020219.42,53580,10.25,73844.0,-4.69,-39.41,-39.41,0,*50
1510020220.65,53581,10.25,73848.0,-4.69,-39.85,-39.65,0,*5F
1510020221.88,53582,10.25,73848.5,-4.69,-39.85,-39.65,0,*5C
1510020223.14,53583,10.25,73850.3,-4.69,-39.79,-39.47,0,*5E
1510020224.37,53584,10.25,73846.3,-4.69,-39.65,-39.65,0,*54
1510020225.65,53585,10.25,73846.8,-4.69,-39.97,-39.79,0,*55
1510020226.87,53586,10.25,73850.5,-4.69,-40.03,-39.85,0,*56
1510020228.11,53587,10.25,73852.0,-4.69,-40.21,-40.03,0,*57
1510020229.31,53588,10.25,73846.8,-4.71,-40.15,-40.03,0,*56
1510020230.59,53589,10.25,73854.3,-4.69,-40.09,-39.97,0,*50
1510020231.87,53590,10.25,73850.3,-4.69,-40.09,-39.97,0,*58
1510020233.1,53591,10.25,73846.8,-4.71,-40.09,-40.03,0,*53
1510020234.37,53592,10.25,73850.0,-4.69,-39.97,-39.97,0,*53
1510020235.59,53593,10.25,73848.8,-4.71,-40.03,-39.97,0,*58
1510020236.87,53594,10.25,73848.3,-4.69,-40.09,-39.97,0,*5C
1510020238.11,53595,10.25,73850.3,-4.69,-40.21,-40.03,0,*54
1510020239.32,53596,10.25,73848.5,-4.71,-40.15,-40.03,0,*59
1510020240.57,53597,10.25,73850.0,-4.69,-39.97,-39.85,0,*55
1510020241.81,53598,10.25,73850.3,-4.69,-40.03,-39.97,0,*5A
1510020243.04,53599,10.25,73848.3,-4.69,-40.03,-40.03,0,*58
1510020244.24,53600,10.25,73850.5,-4.71,-39.91,-39.85,0,*57
1510020245.46,53601,10.25,73848.3,-4.69,-40.03,-39.85,0,*5A
1510020246.75,53602,10.25,73850.3,-4.69,-39.79,-39.59,0,*5B
1510020247.98,53603,10.25,73846.5,-4.71,-40.09,-39.91,0,*5E
1510020249.18,53604,10.25,73848.0,-4.71,-40.15,-40.03,0,*51
1510020250.41,53605,10.25,73850.3,-4.71,-40.09,-40.03,0,*5D
1510020251.65,53606,10.25,73844.0,-4.69,-39.97,-39.85,0,*5E
1510020252.86,53607,10.25,73848.0,-4.71,-39.91,-39.85,0,*50
1510020254.08,53608,10.25,73848.0,-4.71,-40.09,-39.91,0,*55
1510020255.32,53609,10.25,73846.5,-4.71,-40.15,-40.09,0,*56
1510020256.55,53610,10.25,73848.8,-4.71,-40.09,-39.91,0,*5C
1510020257.75,53611,10.25,73844.8,-4.71,-39.91,-39.85,0,*57
1510020259.0,53612,10.25,73848.8,-4.71,-40.29,-40.09,0,*53
1510020260.22,53613,10.25,73852.5,-4.71,-40.09,-40.03,0,*5A
1510020261.47,53614,10.25,73848.8,-4.71,-40.29,-40.09,0,*55
1510020262.68,53615,10.25,73850.0,-4.71,-39.91,-39.65,0,*5D
1510020263.91,53616,10.25,73846.8,-4.69,-39.85,-39.85,0,*5C
1510020265.11,53617,10.25,73846.5,-4.71,-40.15,-40.03,0,*53
1510020266.34,53618,10.25,73850.5,-4.71,-40.09,-39.91,0,*54
1510020267.54,53619,10.25,73848.5,-4.71,-40.03,-39.85,0,*5A
1510020268.77,53620,10.25,73850.3,-4.71,-40.15,-40.09,0,*5D
1510020269.99,53621,10.25,73848.8,-4.69,-40.03,-40.03,0,*58
1510020271.19,53622,10.25,73844.5,-4.71,-40.03,-39.91,0,*57
1510020272.42,53623,10.25,73852.3,-4.71,-40.09,-40.03,0,*59
1510020273.66,53624,10.25,73844.8,-4.71,-40.15,-40.09,0,*59
1510020274.89,53625,10.25,73850.5,-4.71,-40.15,-40.09,0,*58
1510020276.09,53626,10.25,73850.0,-4.71,-40.03,-39.91,0,*53
1510020277.35,53627,10.25,73846.8,-4.71,-40.09,-40.09,0,*57
1510020278.58,53628,10.25,73852.5,-4.71,-40.09,-39.91,0,*57
1510020279.77,53629,10.25,73848.8,-4.71,-40.35,-40.03,0,*5C
1510020281.03,53630,10.25,73846.0,-4.73,-40.09,-40.03,0,*59
1510020282.23,53631,10.25,73848.3,-4.71,-40.15,-40.03,0,*57
1510020283.48,53632,10.25,73852.3,-4.71,-40.29,-40.09,0,*51
1510020284.76,53633,10.25,73850.8,-4.73,-40.29,-40.09,0,*52
1510020286.01,53634,10.25,73846.8,-4.73,-40.09,-40.03,0,*5D
1510020287.27,53635,10.25,73852.0,-4.73,-40.09,-39.91,0,*59
1510020288.54,53636,10.25,73850.0,-4.73,-40.15,-40.09,0,*58
1510020289.77,53637,10.25,73848.0,-4.73,-40.15,-40.03,0,*53
1510020291.01,53638,10.25,73848.8,-4.73,-39.91,-39.91,0,*5B
1510020292.24,53639,10.25,73846.8,-4.73,-40.03,-39.91,0,*5F
1510020293.5,53640,10.25,73850.3,-4.73,-40.09,-39.91,0,*5B
1510020294.73,53641,10.25,73850.0,-4.73,-40.15,-40.03,0,*52
1510020295.96,53642,10.25,73846.5,-4.73,-40.03,-39.91,0,*53
1510020297.19,53643,10.25,73848.0,-4.73,-39.91,-39.85,0,*52
1510020298.42,53644,10.25,73850.5,-4.73,-40.03,-39.85,0,*50
1510020299.68,53645,10.25,73850.8,-4.73,-39.85,-39.71,0,*5A
1510020300.93,53646,10.25,73850.5,-4.77,-40.21,-40.15,0,*51
1510020302.16,53647,10.25,73850.8,-4.73,-40.15,-40.03,0,*54
1510020303.42,53648,10.25,73852.3,-4.73,-40.09,-39.91,0,*53
1510020304.72,53649,10.25,73850.5,-4.77,-39.79,-39.71,0,*51
1510020305.97,53650,10.25,73850.5,-4.73,-39.65,-39.53,0,*50
1510020307.22,53651,10.25,73852.8,-4.73,-39.85,-39.53,0,*5F
1510020308.51,53652,10.25,73850.0,-4.73,-39.71,-39.71,0,*57
1510020309.77,53653,10.25,73850.8,-4.73,-40.09,-39.91,0,*59
1510020311.0,53654,10.25,73850.3,-4.73,-40.03,-39.91,0,*54
1510020312.22,53655,10.25,73850.5,-4.73,-40.03,-39.85,0,*50
1510020313.42,53656,10.25,73850.8,-4.71,-40.03,-39.91,0,*54
1510020314.62,53657,10.25,73848.0,-4.71,-40.03,-39.85,0,*50
1510020315.84,53658,10.25,73848.5,-4.71,-40.09,-40.03,0,*55
1510020317.07,53659,10.25,73850.8,-4.73,-39.91,-39.85,0,*59
1510020318.31,53660,10.25,73848.5,-4.73,-39.91,-39.91,0,*56
1510020319.58,53661,10.25,73848.0,-4.73,-40.15,-40.09,0,*5A
1510020320.8,53662,10.25,73850.5,-4.73,-40.35,-40.15,0,*56
1510020322.05,53663,10.25,73848.8,-4.73,-40.29,-40.03,0,*5D
1510020323.28,53664,10.25,73848.0,-4.73,-39.91,-39.85,0,*57
1510020324.54,53665,10.25,73852.8,-4.77,-40.09,-39.91,0,*58
1510020325.81,53666,10.25,73848.5,-4.73,-39.91,-39.71,0,*5E
1510020327.03,53667,10.25,73850.8,-4.73,-40.03,-39.85,0,*51
1510020328.29,53668,10.25,73848.8,-4.73,-39.71,-39.65,0,*5B
1510020329.52,53669,10.25,73850.0,-4.73,-40.03,-39.91,0,*5A
1510020330.78,53670,10.25,73844.8,-4.73,-40.09,-39.91,0,*58
1510020332.04,53671,10.25,73848.3,-4.73,-40.09,-40.03,0,*5C
1510020333.28,53672,10.25,73848.3,-4.73,-40.15,-40.15,0,*55
1510020334.56,53673,10.25,73854.8,-4.77,-40.21,-40.09,0,*5A
1510020335.81,53674,10.25,73852.5,-4.77,-40.21,-40.15,0,*50
1510020337.05,53675,10.25,73854.3,-4.73,-40.29,-40.03,0,*5A
1510020338.29,53676,10.25,73852.0,-4.73,-39.91,-39.85,0,*54
1510020339.54,53677,10.25,73850.5,-4.77,-39.97,-39.91,0,*52
1510020340.78,53678,10.25,73848.5,-4.73,-39.91,-39.85,0,*5A
1510020342.05,53679,10.25,73848.0,-4.73,-40.29,-40.09,0,*5C
1510020343.33,53680,10.25,73848.5,-4.73,-40.29,-40.09,0,*5A
1510020344.58,53681,10.25,73850.0,-4.73,-40.35,-40.29,0,*54
1510020345.85,53682,10.25,73850.3,-4.77,-40.15,-40.09,0,*53
1510020347.11,53683,10.25,73848.3,-4.73,-39.85,-39.71,0,*50
1510020348.35,53684,10.25,73848.5,-4.73,-40.15,-39.85,0,*5B
1510020349.6,53685,10.25,73850.3,-4.73,-40.03,-39.71,0,*56
1510020350.86,53686,10.25,73846.3,-4.77,-39.97,-39.91,0,*5C
1510020352.12,53687,10.25,73850.0,-4.77,-40.15,-39.97,0,*5F
1510020353.38,53688,10.25,73848.8,-4.77,-40.41,-40.15,0,*55
1510020354.66,53689,10.25,73850.0,-4.77,-40.21,-39.97,0,*56
1510020355.93,53690,10.25,73850.8,-4.77,-40.15,-40.09,0,*50
1510020357.16,53691,10.25,73848.3,-4.73,-40.15,-40.03,0,*5F
1510020358.43,53692,10.25,73848.5,-4.77,-40.15,-39.97,0,*5B
1510020359.68,53693,10.25,73852.3,-4.77,-40.35,-39.97,0,*58
1510020360.93,53694,10.25,73848.3,-4.77,-40.21,-40.15,0,*5E
1510020362.17,53695,10.25,73850.3,-4.73,-40.15,-40.03,0,*5B
1510020363.45,53696,10.25,73850.3,-4.77,-40.21,-40.09,0,*51
1510020364.7,53697,10.25,73848.0,-4.73,-40.09,-39.91,0,*51
1510020365.98,53698,10.25,73852.3,-4.77,-40.21,-40.09,0,*5F
1510020367.27,53699,10.25,73850.5,-4.77,-40.09,-39.97,0,*5D
1510020368.55,53700,10.25,73850.3,-4.77,-40.21,-40.09,0,*5F
1510020369.83,53701,10.25,73850.8,-4.77,-40.09,-39.97,0,*5D
1510020371.07,53702,10.25,73852.8,-4.77,-40.15,-39.91,0,*55
1510020372.3,53703,10.25,73846.8,-4.79,-40.29,-40.15,0,*57
1510020373.52,53704,10.25,73850.3,-4.79,-40.47,-40.21,0,*5F
1510020374.75,53705,10.25,73848.0,-4.79,-40.47,-40.21,0,*5E
1510020376.01,53706,10.25,73846.0,-4.79,-40.41,-40.21,0,*5B
1510020377.23,53707,10.25,73848.8,-4.79,-40.29,-40.03,0,*54
1510020378.47,53708,10.25,73848.0,-4.79,-40.29,-40.21,0,*5B
1510020379.73,53709,10.25,73850.0,-4.81,-40.47,-40.21,0,*55
1510020380.93,53710,10.25,73854.0,-4.79,-40.03,-39.85,0,*5A
1510020382.17,53711,10.25,73848.8,-4.81,-40.21,-40.03,0,*5C
1510020383.45,53712,10.25,73850.8,-4.81,-40.29,-40.21,0,*57
1510020384.66,53713,10.25,73848.0,-4.79,-40.15,-40.03,0,*5E
1510020385.91,53714,10.25,73842.8,-4.81,-40.21,-40.15,0,*5E
1510020387.16,53715,10.25,73848.0,-4.79,-40.59,-40.29,0,*58
1510020388.41,53716,10.25,73850.3,-4.79,-40.29,-40.21,0,*54
1510020389.66,53717,10.25,73844.5,-4.81,-40.41,-40.15,0,*5B
1510020390.94,53718,10.25,73848.3,-4.81,-40.29,-40.21,0,*5D
1510020392.19,53719,10.25,73848.3,-4.81,-40.29,-40.15,0,*5B
1510020393.41,53720,10.25,73846.5,-4.79,-40.21,-40.03,0,*59
1510020394.63,53721,10.25,73850.8,-4.79,-40.29,-40.15,0,*57
1510020395.9,53722,10.25,73848.8,-4.81,-40.15,-39.97,0,*58
1510020397.16,53723,10.25,73850.0,-4.81,-40.41,-40.15,0,*5C
1510020398.41,53724,10.25,73848.3,-4.81,-40.29,-40.15,0,*55
1510020399.65,53725,10.25,73850.8,-4.81,-40.21,-40.03,0,*5B
1510020400.87,53726,10.25,73848.0,-4.79,-40.21,-40.03,0,*5F
1510020402.08,53727,10.25,73848.5,-4.79,-40.15,-39.85,0,*59
1510020403.36,53728,10.25,73846.8,-4.81,-40.41,-40.29,0,*58
1510020404.61,53729,10.25,73852.0,-4.81,-40.21,-40.15,0,*50
1510020405.86,53730,10.25,73848.3,-4.81,-40.21,-40.03,0,*5F
1510020407.11,53731,10.25,73848.0,-4.81,-40.21,-40.15,0,*59
1510020408.37,53732,10.25,73848.8,-4.81,-40.15,-39.97,0,*59
1510020409.62,53733,10.25,73848.0,-4.81,-40.03,-39.79,0,*5F
1510020410.91,53734,10.25,73844.5,-4.81,-40.41,-40.21,0,*5D
1510020412.13,53735,10.25,73846.5,-4.81,-40.03,-39.85,0,*5A
1510020413.38,53736,10.25,73848.3,-4.81,-40.21,-40.15,0,*5E
1510020414.66,53737,10.25,73848.0,-4.81,-39.97,-39.79,0,*58
1510020415.94,53738,10.25,73850.5,-4.81,-39.97,-39.97,0,*57
1510020417.17,53739,10.25,73848.0,-4.81,-40.03,-39.85,0,*56
1510020418.43,53740,10.25,73848.8,-4.81,-39.79,-39.65,0,*55
1510020419.69,53741,10.25,73848.3,-4.81,-39.85,-39.79,0,*5A
1510020420.93,53742,10.25,73848.0,-4.81,-40.15,-40.03,0,*5D
1510020422.18,53743,10.25,73846.0,-4.81,-39.97,-39.85,0,*58
1510020423.45,53744,10.25,73846.3,-4.81,-40.21,-39.97,0,*5F
1510020424.68,53745,10.25,73844.8,-4.79,-39.85,-39.79,0,*59
1510020425.95,53746,10.25,73848.5,-4.81,-40.15,-39.97,0,*5A
1510020427.17,53747,10.25,73844.8,-4.79,-40.29,-40.15,0,*57
1510020428.42,53748,10.25,73846.8,-4.79,-40.21,-39.97,0,*54
1510020429.69,53749,10.25,73846.8,-4.81,-40.29,-40.21,0,*59
1510020430.92,53750,10.25,73850.0,-4.79,-40.29,-40.15,0,*51
1510020432.19,53751,10.25,73850.8,-4.81,-40.21,-39.97,0,*5B
1510020433.43,53752,10.25,73850.3,-4.81,-40.21,-40.03,0,*5B
1510020434.67,53753,10.25,73850.8,-4.81,-40.15,-40.03,0,*5D
1510020435.93,53754,10.25,73846.5,-4.81,-39.79,-39.47,0,*50
1510020437.18,53755,10.25,73844.8,-4.81,-39.97,-39.85,0,*5F
1510020438.45,53756,10.25,73850.0,-4.81,-40.21,-40.21,0,*5F
1510020439.69,53757,10.25,73848.0,-4.81,-40.15,-40.03,0,*59
1510020440.93,53758,10.25,73844.8,-4.79,-40.21,-40.21,0,*56
1510020442.17,53759,10.25,73848.8,-4.81,-40.15,-40.03,0,*57
1510020443.42,53760,10.25,73850.8,-4.81,-39.97,-39.85,0,*59
1510020444.67,53761,10.25,73850.8,-4.81,-39.97,-39.85,0,*58
1510020445.92,53762,10.25,73850.3,-4.81,-40.03,-39.97,0,*5B
1510020447.17,53763,10.25,73848.5,-4.81,-40.03,-39.97,0,*5A
1510020448.41,53764,10.25,73850.5,-4.81,-39.85,-39.65,0,*50
1510020449.64,53765,10.25,73850.3,-4.81,-40.03,-39.85,0,*5F
1510020450.92,53766,10.25,73848.0,-4.81,-39.97,-39.79,0,*5C
1510020452.19,53767,10.25,73848.5,-4.81,-40.21,-40.21,0,*5D
1510020453.42,53768,10.25,73848.0,-4.81,-40.03,-40.03,0,*52
1510020454.68,53769,10.25,73848.8,-4.81,-39.85,-39.59,0,*52
1510020455.89,53770,10.25,73848.5,-4.79,-39.85,-39.65,0,*52
1510020457.17,53771,10.25,73850.0,-4.81,-39.59,-39.29,0,*5D
1510020458.45,53772,10.25,73850.5,-4.81,-39.97,-39.97,0,*59
1510020459.71,53773,10.25,73846.0,-4.81,-39.85,-39.79,0,*5B
1510020460.96,53774,10.25,73846.8,-4.81,-40.21,-40.03,0,*5F
1510020462.19,53775,10.25,73850.0,-4.81,-40.15,-40.03,0,*59
1510020463.44,53776,10.25,73848.5,-4.81,-40.21,-40.15,0,*5A
1510020464.68,53777,10.25,73850.5,-4.81,-40.15,-40.03,0,*5B
1510020465.91,53778,10.31,73854.0,-4.81,-40.15,-40.03,0,*54
1510020467.18,53779,10.25,73850.0,-4.83,-40.09,-40.09,0,*50
1510020468.44,53780,10.25,73850.5,-4.81,-40.15,-39.97,0,*50
1510020469.67,53781,10.25,73848.0,-4.81,-40.15,-40.03,0,*52
1510020470.93,53782,10.25,73848.3,-4.81,-40.03,-39.97,0,*55
1510020472.2,53783,10.25,73848.0,-4.81,-39.97,-39.97,0,*57
1510020473.48,53784,10.25,73846.8,-4.81,-40.29,-40.21,0,*58
1510020474.72,53785,10.25,73846.5,-4.81,-40.15,-40.15,0,*51
1510020476.0,53786,10.25,73852.3,-4.81,-39.97,-39.79,0,*52
1510020477.26,53787,10.25,73850.3,-4.81,-39.85,-39.79,0,*50
1510020478.5,53788,10.25,73848.8,-4.81,-40.15,-40.03,0,*5B
1510020479.75,53789,10.25,73850.0,-4.81,-40.03,-39.97,0,*5E
1510020481.0,53790,10.25,73846.0,-4.81,-39.97,-39.85,0,*56
1510020482.23,53791,10.25,73848.5,-4.81,-40.15,-39.85,0,*53
1510020483.51,53792,10.25,73848.3,-4.81,-39.97,-39.79,0,*57
1510020484.77,53793,10.25,73850.8,-4.81,-39.85,-39.79,0,*55
1510020486.03,53794,10.25,73850.5,-4.81,-40.03,-39.97,0,*52
1510020487.28,53795,10.25,73850.0,-4.81,-40.21,-40.15,0,*57
1510020488.51,53796,10.25,73844.0,-4.83,-40.09,-39.85,0,*5B
1510020489.77,53797,10.25,73848.8,-4.83,-40.09,-40.09,0,*50
1510020491.01,53798,10.25,73846.0,-4.81,-40.15,-40.03,0,*5A
1510020492.26,53799,10.25,73850.8,-4.81,-39.97,-39.85,0,*5F
1510020493.48,53800,10.25,73850.8,-4.81,-40.03,-39.85,0,*53
1510020494.71,53801,10.25,73850.8,-4.81,-40.03,-39.85,0,*52
1510020495.95,53802,10.25,73850.0,-4.81,-40.15,-40.03,0,*56
1510020497.19,53803,10.25,73848.5,-4.81,-40.21,-40.03,0,*50